| time (UTC) | temp F | wind direction | speed MPH | gust MPH | rain 1hr in | rain 24hr in | rain mn in | humidity % | barometer mb |
| 20260906061510 | 59 | 294 | 1.0 | 5.0 | 0.00 | 0.00 | 0.00 | 100 | 1016.2 |
| 20260906060010 | 59 | 12 | 0.0 | 3.0 | 0.00 | 0.00 | 0.00 | 100 | 1016.3 |
| 20260906054509 | 59 | 238 | 0.0 | 6.0 | 0.00 | 0.00 | 0.00 | 100 | 1016.4 |
| 20260906053009 | 60 | 304 | 0.0 | 5.0 | 0.00 | 0.00 | 0.00 | 100 | 1016.4 |
| 20260906051506 | 60 | 342 | 0.0 | 4.0 | 0.00 | 0.00 | 0.00 | 100 | 1016.5 |
| 20260906050004 | 60 | 61 | 0.0 | 1.0 | 0.00 | 0.00 | 0.00 | 100 | 1016.4 |
| 20260906044503 | 60 | 321 | 0.0 | 4.0 | 0.00 | 0.00 | 0.00 | 100 | 1016.4 |
| 20260906043104 | 61 | 63 | 1.0 | 6.0 | 0.00 | 0.00 | 0.00 | 100 | 1016.2 |
| 20260906041559 | 61 | 303 | 2.0 | 6.0 | 0.00 | 0.00 | 0.00 | 100 | 1016.1 |
| 20260906040106 | 61 | 146 | 0.0 | 3.0 | 0.00 | 0.00 | 0.00 | 100 | 1016.3 |
| 20260906034559 | 60 | 138 | 0.0 | 3.0 | 0.00 | 0.00 | 0.00 | 100 | 1016.2 |
| 20260906033054 | 61 | 180 | 0.0 | 0.0 | 0.00 | 0.00 | 0.00 | 100 | 1016.0 |
| 20260906031553 | 61 | 182 | 0.0 | 0.0 | 0.00 | 0.00 | 0.00 | 100 | 1015.9 |
| 20260906030052 | 61 | 240 | 0.0 | 2.0 | 0.00 | 0.00 | 0.00 | 100 | 1015.8 |
| 20260906024558 | 62 | 252 | 0.0 | 0.0 | 0.00 | 0.00 | 0.00 | 100 | 1015.8 |
| 20260906023051 | 62 | 266 | 0.0 | 3.0 | 0.00 | 0.00 | 0.00 | 100 | 1015.8 |
| 20260906021551 | 62 | 213 | 1.0 | 2.0 | 0.00 | 0.00 | 0.00 | 100 | 1015.7 |
| 20260906020051 | 63 | 213 | 1.0 | 4.0 | 0.00 | 0.00 | 0.00 | 100 | 1015.8 |
| 20260906014627 | 63 | 272 | 0.0 | 0.0 | 0.00 | 0.00 | 0.00 | 100 | 1015.7 |
| 20260906013054 | 63 | 316 | 0.0 | 0.0 | 0.00 | 0.00 | 0.00 | 100 | 1015.6 |
| 20260906011547 | 63 | 331 | 0.0 | 0.0 | 0.00 | 0.00 | 0.00 | 100 | 1015.6 |
| 20260906010051 | 64 | 331 | 0.0 | 0.0 | 0.00 | 0.00 | 0.00 | 100 | 1015.6 |
| 20260906004549 | 64 | 331 | 0.0 | 0.0 | 0.00 | 0.00 | 0.00 | 100 | 1015.4 |
| 20260906003045 | 64 | 331 | 0.0 | 2.0 | 0.00 | 0.00 | 0.00 | 100 | 1015.1 |
| 20260906001545 | 64 | 324 | 0.0 | 3.0 | 0.00 | 0.00 | 0.00 | 100 | 1015.1 |
| 20260906000045 | 65 | 65 | 0.0 | 0.0 | 0.00 | 0.00 | 0.00 | 100 | 1015.0 |
| 20260905234544 | 65 | 65 | 0.0 | 0.0 | 0.00 | 0.00 | 0.00 | 100 | 1015.0 |
| 20260905233046 | 66 | 65 | 0.0 | 0.0 | 0.00 | 0.00 | 0.00 | 100 | 1014.7 |
| 20260905231543 | 67 | 65 | 0.0 | 0.0 | 0.00 | 0.00 | 0.00 | 100 | 1014.6 |
| 20260905230042 | 69 | 65 | 0.0 | 0.0 | 0.00 | 0.00 | 0.00 | 100 | 1014.5 |
| 20260905224542 | 69 | 63 | 0.0 | 1.0 | 0.00 | 0.00 | 0.00 | 100 | 1014.2 |
| 20260905223042 | 70 | 75 | 0.0 | 3.0 | 0.00 | 0.00 | 0.00 | 100 | 1014.3 |
| 20260905221603 | 71 | 102 | 0.0 | 4.0 | 0.00 | 0.00 | 0.00 | 100 | 1014.5 |
| 20260905220041 | 72 | 102 | 2.0 | 6.0 | 0.00 | 0.00 | 0.00 | 100 | 1014.2 |
| 20260905214540 | 72 | 106 | 1.0 | 4.0 | 0.00 | 0.00 | 0.00 | 100 | 1014.0 |
| 20260905213056 | 72 | 36 | 2.0 | 7.0 | 0.00 | 0.00 | 0.00 | 100 | 1013.9 |
| 20260905211544 | 72 | 88 | 1.0 | 3.0 | 0.00 | 0.00 | 0.00 | 100 | 1014.0 |
| 20260905210050 | 72 | 107 | 1.0 | 3.0 | 0.00 | 0.00 | 0.00 | 100 | 1013.8 |
| 20260905204545 | 73 | 113 | 0.0 | 4.0 | 0.00 | 0.00 | 0.00 | 100 | 1013.7 |
| 20260905203042 | 73 | 96 | 1.0 | 9.0 | 0.00 | 0.00 | 0.00 | 100 | 1013.7 |
| 20260905201541 | 75 | 51 | 2.0 | 9.0 | 0.00 | 0.00 | 0.00 | 100 | 1013.5 |
| 20260905200041 | 75 | 175 | 1.0 | 8.0 | 0.00 | 0.00 | 0.00 | 100 | 1013.6 |
| 20260905194535 | 75 | 35 | 0.0 | 5.0 | 0.00 | 0.00 | 0.00 | 100 | 1013.7 |
| 20260905193032 | 74 | 88 | 1.0 | 7.0 | 0.00 | 0.00 | 0.00 | 100 | 1013.7 |
| 20260905191530 | 73 | 90 | 3.0 | 7.0 | 0.00 | 0.00 | 0.00 | 100 | 1013.7 |
| 20260905190029 | 74 | 106 | 3.0 | 6.0 | 0.00 | 0.00 | 0.00 | 100 | 1014.0 |
| 20260905184535 | 73 | 76 | 1.0 | 6.0 | 0.00 | 0.00 | 0.00 | 100 | 1014.1 |
| 20260905183020 | 72 | 88 | 1.0 | 6.0 | 0.00 | 0.00 | 0.00 | 100 | 1014.1 |
| 20260905181515 | 72 | 113 | 1.0 | 6.0 | 0.00 | 0.00 | 0.00 | 100 | 1014.3 |
| 20260905180015 | 73 | 350 | 0.0 | 6.0 | 0.00 | 0.00 | 0.00 | 100 | 1014.2 |
| 20260905174508 | 72 | 113 | 2.0 | 6.0 | 0.00 | 0.00 | 0.00 | 100 | 1014.1 |
| 20260905173006 | 72 | 147 | 2.0 | 8.0 | 0.00 | 0.00 | 0.00 | 100 | 1014.2 |
| 20260905171601 | 72 | 112 | 1.0 | 7.0 | 0.00 | 0.00 | 0.00 | 100 | 1014.3 |
| 20260905170059 | 71 | 108 | 0.0 | 3.0 | 0.00 | 0.00 | 0.00 | 100 | 1014.6 |
| 20260905164558 | 71 | 49 | 0.0 | 4.0 | 0.00 | 0.00 | 0.00 | 100 | 1014.5 |
| 20260905163057 | 71 | 103 | 0.0 | 6.0 | 0.00 | 0.00 | 0.00 | 100 | 1014.7 |
| 20260905161604 | 71 | 96 | 2.0 | 9.0 | 0.00 | 0.00 | 0.00 | 100 | 1014.8 |
| 20260905160054 | 72 | 58 | 1.0 | 4.0 | 0.00 | 0.00 | 0.00 | 100 | 1014.7 |
| 20260905154559 | 69 | 94 | 1.0 | 7.0 | 0.00 | 0.00 | 0.00 | 100 | 1014.8 |
| 20260905153052 | 69 | 346 | 1.0 | 7.0 | 0.00 | 0.00 | 0.00 | 100 | 1014.7 |
| 20260905151555 | 68 | 25 | 1.0 | 6.0 | 0.00 | 0.00 | 0.00 | 100 | 1015.0 |
| 20260905150046 | 68 | 105 | 0.0 | 5.0 | 0.00 | 0.00 | 0.00 | 100 | 1015.0 |
| 20260905144545 | 68 | 155 | 2.0 | 7.0 | 0.00 | 0.00 | 0.00 | 100 | 1015.0 |
| 20260905143044 | 67 | 90 | 4.0 | 9.0 | 0.00 | 0.00 | 0.00 | 100 | 1014.9 |
| 20260905141543 | 67 | 107 | 1.0 | 9.0 | 0.00 | 0.00 | 0.00 | 100 | 1015.0 |
| 20260905140042 | 67 | 62 | 1.0 | 8.0 | 0.00 | 0.00 | 0.00 | 100 | 1015.0 |
| 20260905134541 | 66 | 41 | 1.0 | 8.0 | 0.00 | 0.00 | 0.00 | 100 | 1015.0 |
| 20260905133040 | 65 | 171 | 0.0 | 8.0 | 0.00 | 0.00 | 0.00 | 100 | 1015.0 |
| 20260905131539 | 65 | 115 | 3.0 | 8.0 | 0.00 | 0.00 | 0.00 | 100 | 1015.0 |
| 20260905130041 | 66 | 360 | 1.0 | 9.0 | 0.00 | 0.00 | 0.00 | 100 | 1014.9 |
| 20260905124539 | 64 | 319 | 1.0 | 6.0 | 0.00 | 0.00 | 0.00 | 100 | 1015.0 |
| 20260905123041 | 63 | 59 | 1.0 | 5.0 | 0.00 | 0.00 | 0.00 | 100 | 1015.0 |
| 20260905121539 | 63 | 121 | 3.0 | 6.0 | 0.00 | 0.00 | 0.00 | 100 | 1015.2 |
| 20260905120035 | 62 | 200 | 1.0 | 5.0 | 0.00 | 0.00 | 0.00 | 100 | 1015.2 |
| 20260905114534 | 61 | 95 | 0.0 | 3.0 | 0.00 | 0.00 | 0.00 | 100 | 1014.9 |
| 20260905113033 | 60 | 88 | 0.0 | 2.0 | 0.00 | 0.00 | 0.00 | 100 | 1014.6 |
| 20260905111536 | 59 | 78 | 0.0 | 3.0 | 0.00 | 0.00 | 0.00 | 100 | 1014.3 |
| 20260905110031 | 58 | 189 | 0.0 | 0.0 | 0.00 | 0.00 | 0.00 | 100 | 1014.3 |
| 20260905104533 | 58 | 189 | 0.0 | 1.0 | 0.00 | 0.00 | 0.00 | 100 | 1014.2 |
| 20260905103032 | 58 | 189 | 0.0 | 0.0 | 0.00 | 0.00 | 0.00 | 100 | 1013.9 |
| 20260905101533 | 58 | 123 | 0.0 | 1.0 | 0.00 | 0.00 | 0.00 | 100 | 1013.7 |
| 20260905100035 | 58 | 123 | 0.0 | 1.0 | 0.00 | 0.00 | 0.00 | 100 | 1013.6 |
| 20260905094526 | 58 | 123 | 0.0 | 0.0 | 0.00 | 0.00 | 0.00 | 100 | 1013.5 |
| 20260905093024 | 59 | 123 | 0.0 | 1.0 | 0.00 | 0.00 | 0.00 | 100 | 1013.4 |
| 20260905091523 | 59 | 119 | 0.0 | 0.0 | 0.00 | 0.00 | 0.00 | 100 | 1013.5 |
| 20260905090022 | 59 | 119 | 0.0 | 0.0 | 0.00 | 0.00 | 0.00 | 100 | 1013.5 |
| 20260905084520 | 59 | 118 | 0.0 | 0.0 | 0.00 | 0.00 | 0.00 | 100 | 1013.5 |
| 20260905083026 | 60 | 118 | 0.0 | 0.0 | 0.00 | 0.00 | 0.00 | 100 | 1013.5 |
| 20260905081522 | 60 | 118 | 0.0 | 0.0 | 0.00 | 0.00 | 0.00 | 100 | 1013.5 |
| 20260905080026 | 61 | 118 | 0.0 | 0.0 | 0.00 | 0.00 | 0.00 | 100 | 1013.6 |
| 20260905074513 | 61 | 118 | 0.0 | 0.0 | 0.00 | 0.00 | 0.00 | 100 | 1013.6 |
| 20260905073010 | 62 | 118 | 0.0 | 0.0 | 0.00 | 0.00 | 0.00 | 100 | 1013.7 |
| 20260905071509 | 62 | 118 | 0.0 | 0.0 | 0.00 | 0.00 | 0.00 | 100 | 1013.8 |
| 20260905070013 | 63 | 117 | 0.0 | 0.0 | 0.00 | 0.00 | 0.00 | 100 | 1013.9 |
| 20260905064505 | 63 | 104 | 0.0 | 1.0 | 0.00 | 0.00 | 0.00 | 100 | 1014.0 |
| 20260905063002 | 64 | 103 | 0.0 | 1.0 | 0.00 | 0.00 | 0.00 | 100 | 1014.0 |